STARLINK-36734, 67988

Orbit data source: Space-Track

STARLINK-36734, 67988 is a payload satellite owned by SpaceX/Seattle (US) in LEO that was launched on Fri, 27 Feb 2026 UTC via an FALCON 9 launch vehicle from the Air Force Eastern Test Range (AFETR). Payload-class satellites include a variety of spacecraft equipped with specific instruments for various scientific and technological missions. These include communications satellites like Starlink; space stations such as the ISS; scientific satellites like the Hubble; Earth observation satellites from companies like Planet Labs, Umbra, and HawkEye 360; GPS; miniature CubeSats for education and research; and military/defense satellites.

Loading next visibility...
Identifier
67988, 2026-039C
Orbit
LEO
Country
Flag of USUS
Related business
Manufacturer
SpaceX/Seattle
Mission
Operational Commercial Communications
Bus & Motor
STARLINK V2MO, Unknown motor
Mass
575 kg wet, ~530 kg dry
Launch date (UTC)
2026-02-27 (4 months ago)
Launch vehicle
FALCON 9
Launch site
Air Force Eastern Test Range (AFETR)
Object type
Payload
Rocket body
Debris
Shape & HBR
Box + 2 Pan, 17.7 m
Radar Cross Section
36.964 m², Large (>1 m²)

Expand to show TLE details & history
Last TLE update: 19 hours ago

TLE from 19 hours ago
0 STARLINK-36734
1 67988U 26039C   26171.10769642  .00011901  00000-0  44116-3 0  9991
2 67988  42.9997 190.8382 0001377 275.3438  84.7256 15.27589233 17365
Epoch: 2026-06-20T02:35Z
TLE epoch observation values (Epoch: 2026-06-20T02:35:04.970Z)
Latitude
-0.00006°
Longitude
-116.25964°
Altitude
482.71 km
Speed
7.626 km/s
True Right ascension
12h 43m 21s
True Declination
0° 00' 00"
Sunlit
Object was in daylight at epoch
Visualization orbit readout
Latitude
Unknown
Longitude
Unknown
Altitude
Unknown
Speed
Unknown
Apparent Right ascension
Unknown
Apparent Declination
Unknown
Sunlit
N/A
Visualization observer readout
Local Sidereal Time
08:42:13
Azimuth
Unknown
Elevation
Unknown
Doppler factor
Unknown
Orbital elements
Apogee altitude
485.912 km
Perigee altitude
484.022 km
Semi-major axis
6,863.104 km
Eccentricity
0.00014
Inclination
42.9997°
RAAN
190.8382°
Arg. of periapsis
275.3438°
True anomaly
84.74131°
Mean anomaly
84.7256°
Eccentric anomaly
84.73346°
Mean motion
3.81735 °/min
Orbital period
94.31 mins
BSTAR
0.00044116
Loading maneuver chart data...
Computing Atmospheric mass density...
Loading historical data...
Loading historical data...
Loading historical data...
Loading historical data...
Loading historical data...
Loading historical data...
Loading historical data...

Documentation

Showing up to 5 results
|